Frenchville, ME

4:24 PM EDT on May 23, 2017 (GMT -0400)
Northern Aroostook Regional

Weather History for KFVE - February, 2014

Change the Weather History Date:

Saturday, February 15, 2014

  Actual Average Record
Temperature  
Mean Temperature 13 °F 13 °F  
Max Temperature 18 °F 21 °F 37 °F (2002)
Min Temperature 7 °F 5 °F -22 °F (2004)
Degree Days  
Heating Degree Days 52    
Month to date heating degree days 827  
Since 1 July heating degree days 6261  
Cooling Degree Days 0    
Month to date cooling degree days 0  
Year to date cooling degree days 0  
Moisture  
Dew Point 9 °F    
Average Humidity 81    
Maximum Humidity 91    
Minimum Humidity 65    
Precipitation  
Precipitation T in 0.03 in 0.11 in (2007)
Month to date precipitation 0.35 0.33  
Year to date precipitation 2.35 2.09  
Sea Level Pressure  
Sea Level Pressure 29.74 in    
Wind  
Wind Speed 8 mph (North)    
Max Wind Speed 23 mph    
Max Gust Speed 28 mph    
Visibility 6 miles    
Events Snow    
T = Trace of Precipitation, MM = Missing Value Source: NWS Daily Summary

Daily Weather History Graph

Daily Weather History Graph

Search for Another Location

Airport or City:

Trip Planner

Search our weather history database for the weather conditions in past years. The results will help you decide how hot, cold, wet, or windy it might be!

Date:

Astronomy

Feb. 15, 2014 Rise Set
Actual Time 6:38 AM EST 4:57 PM EST
Civil Twilight 6:06 AM EST 5:28 PM EST
Nautical Twilight 5:30 AM EST 6:04 PM EST
Astronomical Twilight 4:55 AM EST 6:39 PM EST
Moon 6:00 PM EST (2/15) 6:29 AM EST (2/15)
Length of Visible Light 11h 21m
Length of Day
10h 18m
Full, 100% of the Moon is Illuminated
Feb 15
Full
Feb 22
Last Quarter
Mar 1
New
Mar 8
First Quarter
Mar 16
Full

Hourly Weather History & Observations

Time (EST) Temp. Windchill Dew Point Humidity Pressure Visibility Wind Dir Wind Speed Gust Speed Precip Events Conditions
12:08 AM 14.0 °F -0.8 °F 10.0 °F 84% 29.42 in 3.0 mi NW 13.8 mph - 0.00 in Snow Light Snow
12:24 AM 14.0 °F -0.2 °F 9.0 °F 80% 29.44 in 2.0 mi NW 12.7 mph - 0.00 in Snow Light Snow
12:33 AM 14.0 °F -1.4 °F 9.0 °F 80% 29.45 in 8.0 mi NW 15.0 mph 21.9 mph 0.00 in Snow Light Snow
12:53 AM 14.0 °F -1.4 °F 8.1 °F 77% 29.53 in 10.0 mi WNW 15.0 mph - 0.00 in   Overcast
1:53 AM 12.9 °F -4.4 °F 8.1 °F 81% 29.58 in 9.0 mi NW 18.4 mph - 0.00 in Snow Light Snow
2:48 AM 10.4 °F -6.0 °F 5.0 °F 79% 29.54 in 10.0 mi NW 15.0 mph 24.2 mph 0.00 in   Partly Cloudy
2:53 AM 10.9 °F -5.9 °F 5.0 °F 77% 29.60 in 10.0 mi NNW 16.1 mph - 0.00 in   Partly Cloudy
3:53 AM 10.0 °F -3.7 °F 5.0 °F 80% 29.65 in 10.0 mi NW 10.4 mph - N/A   Clear
4:53 AM 8.1 °F -6.2 °F 3.0 °F 80% 29.73 in 10.0 mi WNW 10.4 mph - N/A   Clear
5:53 AM 8.1 °F -5.3 °F 3.0 °F 80% 29.79 in 10.0 mi West 9.2 mph - N/A   Clear
6:53 AM 8.1 °F -4.3 °F 3.0 °F 80% 29.83 in 10.0 mi WNW 8.1 mph - N/A   Clear
7:53 AM 9.0 °F -3.2 °F 3.0 °F 77% 29.85 in 10.0 mi North 8.1 mph - N/A   Clear
8:53 AM 10.9 °F -3.4 °F 3.0 °F 70% 29.86 in 10.0 mi North 11.5 mph - N/A   Clear
9:53 AM 12.0 °F 1.5 °F 3.9 °F 70% 29.87 in 10.0 mi North 6.9 mph - N/A   Clear
10:53 AM 15.1 °F 9.4 °F 6.1 °F 68% 29.88 in 10.0 mi Variable 3.5 mph - N/A   Clear
11:53 AM 16.0 °F 10.4 °F 6.1 °F 65% 29.88 in 10.0 mi WNW 3.5 mph - N/A   Clear
12:53 PM 15.1 °F 9.4 °F 7.0 °F 70% 29.88 in 10.0 mi South 3.5 mph - N/A   Clear
1:53 PM 16.0 °F 8.8 °F 8.1 °F 71% 29.89 in 10.0 mi South 4.6 mph - N/A   Mostly Cloudy
2:53 PM 17.1 °F - 8.1 °F 68% 29.90 in 10.0 mi Calm Calm - N/A   Overcast
3:53 PM 17.1 °F - 9.0 °F 71% 29.88 in 10.0 mi Calm Calm - N/A   Overcast
4:53 PM 17.1 °F 10.0 °F 9.0 °F 71% 29.89 in 10.0 mi East 4.6 mph - N/A   Overcast
5:53 PM 16.0 °F 7.4 °F 10.0 °F 77% 29.89 in 10.0 mi East 5.8 mph - N/A   Overcast
6:53 PM 16.0 °F 7.4 °F 10.9 °F 81% 29.87 in 10.0 mi ENE 5.8 mph - N/A   Overcast
7:32 PM 16.0 °F 7.4 °F 12.0 °F 84% 29.81 in 2.0 mi ENE 5.8 mph - 0.00 in Snow Light Snow
7:40 PM 16.0 °F 6.3 °F 12.0 °F 84% 29.81 in 1.8 mi ENE 6.9 mph - 0.00 in Snow Light Snow
7:50 PM 15.8 °F 6.1 °F 12.2 °F 86% 29.81 in 2.0 mi ENE 6.9 mph - 0.00 in Snow Light Snow
7:53 PM 16.0 °F 6.3 °F 12.9 °F 88% 29.86 in 2.0 mi NE 6.9 mph - 0.00 in Snow Light Snow
8:04 PM 16.0 °F 7.4 °F 12.9 °F 88% 29.80 in 1.8 mi ENE 5.8 mph - 0.00 in Snow Light Snow
8:15 PM 16.0 °F 6.3 °F 12.9 °F 88% 29.80 in 2.0 mi NE 6.9 mph - 0.00 in Snow Light Snow
8:34 PM 16.0 °F 6.3 °F 12.9 °F 88% 29.78 in 3.0 mi NE 6.9 mph - 0.00 in Snow Light Snow
8:53 PM 16.0 °F 7.4 °F 12.9 °F 88% 29.82 in 4.0 mi NE 5.8 mph - 0.00 in Snow Light Snow
9:11 PM 16.0 °F 10.4 °F 12.9 °F 88% 29.76 in 2.5 mi North 3.5 mph - 0.00 in Snow Light Snow
9:22 PM 16.0 °F 7.4 °F 12.9 °F 88% 29.76 in 2.0 mi NNE 5.8 mph - 0.00 in Snow Light Snow
9:30 PM 16.0 °F 8.8 °F 12.9 °F 88% 29.75 in 3.0 mi North 4.6 mph - 0.00 in Snow Light Snow
9:53 PM 16.0 °F 6.3 °F 12.9 °F 88% 29.78 in 4.0 mi North 6.9 mph - 0.00 in Snow Light Snow
10:17 PM 15.1 °F 5.2 °F 12.9 °F 91% 29.70 in 2.5 mi North 6.9 mph - 0.00 in Snow Light Snow
10:43 PM 15.1 °F 5.2 °F 12.9 °F 91% 29.68 in 2.5 mi NNE 6.9 mph - 0.00 in Snow Light Snow
10:50 PM 15.8 °F 5.1 °F 12.2 °F 86% 29.67 in 3.0 mi NNE 8.1 mph - 0.00 in Snow Light Snow
10:53 PM 15.1 °F 4.2 °F 12.9 °F 91% 29.72 in 3.0 mi North 8.1 mph - 0.00 in Snow Light Snow
11:17 PM 15.1 °F 3.3 °F 12.9 °F 91% 29.65 in 2.5 mi NNE 9.2 mph - 0.00 in Snow Light Snow
11:28 PM 16.0 °F 4.4 °F 12.9 °F 88% 29.65 in 2.0 mi NE 9.2 mph - 0.00 in Snow Light Snow
11:38 PM 16.0 °F 2.9 °F 12.0 °F 84% 29.65 in 1.5 mi NE 11.5 mph - 0.00 in Snow Light Snow
11:49 PM 15.8 °F 5.1 °F 12.2 °F 86% 29.64 in 1.2 mi NE 8.1 mph - 0.00 in Snow Light Snow
11:53 PM 15.1 °F 3.3 °F 12.0 °F 88% 29.69 in 1.2 mi NE 9.2 mph - 0.00 in Snow Light Snow